Hlavní strana
METAR-TAF:

METAR-TAF

Letiště :

Pontiac Municipal Airport

Pontiac, Illinois, Spojené státy americké

zeměpisná šířka: 40-55-25N, zeměpisná délka: 088-37-31W, výška: 201 m

Aktuální stav počasí

Zpráva byla vytvořena před 14 minutami, v 17:35 UTC
Bezvětří
Teplota -1°C
Vlhkost vzduchu 93%
Tlak 1022 hPa
Viditelnost: 11.3 km
Zataženo ve výšce 2100 ft

METAR: KPNT 181735Z AUTO 00000KT 7SM OVC021 M01/M02 A3018 RMK AO2 T10071016

Čas: 11:49 (17:49 UTC)


TAF: chybějící

Stav a předpovědi počasí z více než 4 000 letišť (zprávy METAR a TAF).

Červené a žluté tečky na mapě představují dostupné meteorologické stanice.

Když kurzor umístíte na tečku, zobrazí se název stanice.

Pak kliknutím zobrazíte stav a předpověď počasí.

Chcete-li změnit mapu, kliknutím na zelené tlačítko se znaménkem +mapu přiblížíte, kliknutím na zelené tlačítko se znaménkem – mapu oddálíte a kliknutím na zelené šipky přejdete na sousední mapy.


METAR-TAF: